Red Oak, IA

9:12 PM CST on December 16, 2017 (GMT -0600)
Red Oak Municipal

Weather History for KRDK - May, 2014

Change the Weather History Date:

Sunday, May 25, 2014

  Actual Average Record
Temperature  
Mean Temperature 72 °F -  
Max Temperature 80 °F 77 °F 97 °F (1953)
Min Temperature 64 °F 52 °F 37 °F (1948)
Cooling Degree Days 7    
Growing Degree Days 22 (Base 50)    
Moisture  
Dew Point 65 °F    
Average Humidity 89    
Maximum Humidity 94    
Minimum Humidity 70    
Precipitation  
Precipitation 0.13 in - - ()
Sea Level Pressure  
Sea Level Pressure 29.99 in    
Wind  
Wind Speed 7 mph (SE)    
Max Wind Speed 16 mph    
Max Gust Speed 26 mph    
Visibility 8 miles    
Events Rain    
Averages and records for this station are not official NWS values.
T = Trace of Precipitation, MM = Missing Value Source: NWS Daily Summary

Daily Weather History Graph

Daily Weather History Graph

Search for Another Location

Airport or City:

Trip Planner

Search our weather history database for the weather conditions in past years. The results will help you decide how hot, cold, wet, or windy it might be!

Date:

Astronomy

May. 25, 2014 Rise Set
Actual Time 5:55 AM CDT 8:41 PM CDT
Civil Twilight 5:22 AM CDT 9:13 PM CDT
Nautical Twilight 4:42 AM CDT 9:54 PM CDT
Astronomical Twilight 3:55 AM CDT 10:41 PM CDT
Moon 4:01 AM CDT (5/25) 5:41 PM CDT (5/25)
Length of Visible Light 15h 50m
Length of Day
14h 46m
Waning Crescent, 10% of the Moon is Illuminated
May 25
Waning Crescent
May 28
New
Jun 5
First Quarter
Jun 12
Full
Jun 19
Last Quarter

Hourly Weather History & Observations

Time (CDT) Temp. Heat Index Dew Point Humidity Pressure Visibility Wind Dir Wind Speed Gust Speed Precip Events Conditions
12:15 AM 66.2 °F - 64.4 °F 94% 30.03 in 9.0 mi ESE 6.9 mph - N/A   Overcast
12:35 AM 66.2 °F - 64.4 °F 94% 30.03 in 9.0 mi ESE 9.2 mph - N/A   Overcast
12:55 AM 66.2 °F - 64.4 °F 94% 30.03 in 10.0 mi SE 11.5 mph - 0.01 in   Overcast
1:15 AM 66.2 °F - 62.6 °F 88% 30.02 in 10.0 mi ESE 8.1 mph 13.8 mph N/A   Overcast
1:35 AM 64.4 °F - 62.6 °F 94% 30.02 in 10.0 mi ESE 6.9 mph - N/A   Overcast
1:55 AM 64.4 °F - 62.6 °F 94% 30.02 in 10.0 mi SE 5.8 mph - N/A   Overcast
2:15 AM 64.4 °F - 62.6 °F 94% 30.02 in 6.0 mi SE 5.8 mph - N/A   Overcast
2:35 AM 64.4 °F - 62.6 °F 94% 30.01 in 7.0 mi ESE 5.8 mph - N/A Rain Light Rain
2:55 AM 64.4 °F - 62.6 °F 94% 30.01 in 10.0 mi SE 4.6 mph - 0.02 in   Overcast
3:15 AM 64.4 °F - 62.6 °F 94% 30.01 in 10.0 mi Variable 5.8 mph - N/A   Overcast
3:35 AM 64.4 °F - 62.6 °F 94% 30.01 in 10.0 mi SE 4.6 mph - N/A   Overcast
3:55 AM 64.4 °F - 62.6 °F 94% 30.01 in 10.0 mi SE 4.6 mph - N/A   Overcast
4:15 AM 64.4 °F - 62.6 °F 94% 30.01 in 10.0 mi SE 4.6 mph - N/A   Overcast
4:35 AM 64.4 °F - 62.6 °F 94% 30.01 in 10.0 mi SE 5.8 mph - N/A   Overcast
4:55 AM 64.4 °F - 62.6 °F 94% 30.00 in 10.0 mi SE 4.6 mph - N/A   Overcast
5:15 AM 64.4 °F - 62.6 °F 94% 30.00 in 10.0 mi SE 4.6 mph - N/A   Overcast
5:35 AM 64.4 °F - 62.6 °F 94% 30.01 in 10.0 mi SE 6.9 mph - N/A   Overcast
5:55 AM 64.4 °F - 62.6 °F 94% 30.01 in 8.0 mi SSE 6.9 mph - N/A   Overcast
6:15 AM 64.4 °F - 62.6 °F 94% 30.01 in 5.0 mi SE 5.8 mph - N/A   Overcast
6:35 AM 64.4 °F - 62.6 °F 94% 30.01 in 6.0 mi SE 4.6 mph - N/A   Overcast
6:55 AM 64.4 °F - 62.6 °F 94% 30.01 in 6.0 mi SSE 4.6 mph - N/A   Overcast
7:15 AM 64.4 °F - 62.6 °F 94% 30.00 in 5.0 mi SE 6.9 mph - N/A   Overcast
7:35 AM 64.4 °F - 62.6 °F 94% 30.01 in 5.0 mi SSE 6.9 mph - N/A   Overcast
7:55 AM 64.4 °F - 62.6 °F 94% 30.01 in 5.0 mi SSE 4.6 mph - N/A   Overcast
8:15 AM 66.2 °F - 64.4 °F 94% 30.01 in 5.0 mi SE 5.8 mph - N/A   Overcast
8:35 AM 66.2 °F - 64.4 °F 94% 30.02 in 4.0 mi SE 6.9 mph - N/A   Overcast
8:55 AM 66.2 °F - 64.4 °F 94% 30.02 in 4.0 mi SE 10.4 mph - N/A   Overcast
9:15 AM 66.2 °F - 64.4 °F 94% 30.02 in 3.0 mi SE 9.2 mph - N/A   Overcast
9:55 AM 66.2 °F - 64.4 °F 94% 30.01 in 3.0 mi SE 5.8 mph - N/A   Overcast
10:15 AM 66.2 °F - 64.4 °F 94% 30.01 in 3.0 mi SE 9.2 mph - N/A   Overcast
10:35 AM 68.0 °F - 66.2 °F 94% 30.00 in 3.0 mi SE 8.1 mph - N/A   Overcast
10:55 AM 68.0 °F - 66.2 °F 94% 30.01 in 4.0 mi SSE 9.2 mph - N/A   Overcast
11:15 AM 69.8 °F - 66.2 °F 88% 30.01 in 4.0 mi SE 9.2 mph - N/A   Overcast
11:55 AM 69.8 °F - 66.2 °F 88% 30.01 in 5.0 mi SE 6.9 mph - N/A   Overcast
12:15 PM 71.6 °F - 68.0 °F 88% 30.00 in 6.0 mi East 6.9 mph - N/A   Haze
12:35 PM 73.4 °F - 68.0 °F 83% 30.00 in 6.0 mi East 9.2 mph - N/A   Haze
12:55 PM 73.4 °F - 68.0 °F 83% 30.00 in 6.0 mi East 10.4 mph - N/A   Haze
1:15 PM 75.2 °F - 69.8 °F 83% 29.98 in 7.0 mi East 6.9 mph - N/A   Scattered Clouds
1:55 PM 78.8 °F - 69.8 °F 74% 29.96 in 9.0 mi SE 8.1 mph 15.0 mph N/A   Mostly Cloudy
2:15 PM 80.6 °F 83.9 °F 69.8 °F 70% 29.95 in 10.0 mi SE 11.5 mph - N/A   Scattered Clouds
2:35 PM 80.6 °F 83.9 °F 69.8 °F 70% 29.94 in 10.0 mi SSE 9.2 mph 16.1 mph N/A   Mostly Cloudy
2:55 PM 78.8 °F - 69.8 °F 74% 29.94 in 10.0 mi SE 10.4 mph - N/A   Overcast
3:15 PM 78.8 °F - 69.8 °F 74% 29.96 in 9.0 mi SSW 16.1 mph 24.2 mph N/A   Overcast
3:35 PM 71.6 °F - 66.2 °F 83% 29.96 in 5.0 mi West 8.1 mph 16.1 mph N/A Rain Light Rain
4:15 PM 68.0 °F - 60.8 °F 78% 29.96 in 10.0 mi SW 10.4 mph 16.1 mph N/A   Mostly Cloudy
4:30 PM 68.0 °F - 62.6 °F 83% 29.96 in 8.0 mi SSW 9.2 mph - N/A   Overcast
4:55 PM 68.0 °F - 64.4 °F 88% 29.96 in 4.0 mi SE 5.8 mph - 0.05 in Rain Light Rain
5:15 PM 68.0 °F - 66.2 °F 94% 29.92 in 10.0 mi Variable 4.6 mph - N/A   Light Drizzle
5:35 PM 68.0 °F - 66.2 °F 94% 29.91 in 10.0 mi NE 3.5 mph - N/A   Clear
5:55 PM 69.8 °F - 66.2 °F 88% 29.92 in 10.0 mi Calm Calm - N/A   Clear
6:15 PM 69.8 °F - 68.0 °F 94% 29.93 in 10.0 mi South 6.9 mph - N/A   Partly Cloudy
6:35 PM 71.6 °F - 68.0 °F 88% 29.92 in 10.0 mi SE 6.9 mph - N/A   Partly Cloudy
6:55 PM 73.4 °F - 66.2 °F 78% 29.92 in 10.0 mi ESE 6.9 mph - N/A   Clear
7:15 PM 73.4 °F - 66.2 °F 78% 29.93 in 10.0 mi SE 5.8 mph - N/A   Clear
7:35 PM 71.6 °F - 66.2 °F 83% 29.94 in 10.0 mi SE 8.1 mph - N/A   Clear
7:55 PM 69.8 °F - 66.2 °F 88% 29.94 in 10.0 mi SE 9.2 mph - N/A   Clear
8:15 PM 69.8 °F - 66.2 °F 88% 29.96 in 10.0 mi SSE 6.9 mph - N/A   Scattered Clouds
8:35 PM 69.8 °F - 64.4 °F 83% 29.96 in 10.0 mi ESE 4.6 mph - N/A   Overcast
8:55 PM 69.8 °F - 66.2 °F 88% 29.97 in 10.0 mi SE 4.6 mph - N/A   Overcast
9:15 PM 69.8 °F - 66.2 °F 88% 29.96 in 10.0 mi Calm Calm - N/A   Mostly Cloudy
9:35 PM 69.8 °F - 66.2 °F 88% 29.95 in 10.0 mi Calm Calm - N/A   Mostly Cloudy
9:55 PM 69.8 °F - 66.2 °F 88% 29.96 in 10.0 mi Calm Calm - N/A   Mostly Cloudy
10:15 PM 69.8 °F - 66.2 °F 88% 29.96 in 10.0 mi Calm Calm - N/A   Scattered Clouds
10:35 PM 69.8 °F - 66.2 °F 88% 29.97 in 10.0 mi Calm Calm - N/A   Overcast
10:55 PM 69.8 °F - 66.2 °F 88% 29.99 in 10.0 mi WSW 15.0 mph - N/A   Overcast
11:15 PM 68.0 °F - 66.2 °F 94% 30.00 in 9.0 mi SW 15.0 mph 26.5 mph N/A   Overcast
11:35 PM 66.2 °F - 64.4 °F 94% 30.00 in 10.0 mi SW 10.4 mph 16.1 mph N/A   Mostly Cloudy
11:55 PM 66.2 °F - 64.4 °F 94% 30.00 in 5.0 mi SSW 10.4 mph - 0.05 in Rain Light Rain